KD5NDU-15 Weather Reports


time (UTC)temp
C
wind
direction
speed
KPH
gust
KPH
rain 1hr
cm
rain 24hr
cm
rain mn
cm
humidity
%
barometer
mb
20260903193134 36 227 4.8 8.0 0.00 0.00 0.00 55 1014.7
20260903192634 35 251 3.2 9.7 0.00 0.00 0.00 55 1014.8
20260903192134 35 233 3.2 8.0 0.00 0.00 0.00 56 1014.8
20260903191634 35 244 4.8 8.0 0.00 0.00 0.00 56 1014.8
20260903191134 35 250 4.8 9.7 0.00 0.00 0.00 55 1015.0
20260903190634 36 226 3.2 9.7 0.00 0.00 0.00 55 1015.1
20260903190134 36 240 3.2 6.4 0.00 0.00 0.00 55 1015.1
20260903185634 36 212 3.2 9.7 0.00 0.00 0.00 54 1015.2
20260903185134 37 107 1.6 4.8 0.00 0.00 0.00 53 1015.2
20260903184634 37 101 1.6 4.8 0.00 0.00 0.00 54 1015.1
20260903184134 36 296 0.0 4.8 0.00 0.00 0.00 57 1015.5
20260903183634 36 252 0.0 3.2 0.00 0.00 0.00 58 1015.6
20260903183134 35 251 0.0 1.6 0.00 0.00 0.00 60 1015.5
20260903182634 35 251 0.0 3.2 0.00 0.00 0.00 60 1015.7
20260903182134 35 250 0.0 3.2 0.00 0.00 0.00 59 1015.7
20260903181634 35 344 0.0 0.0 0.00 0.00 0.00 60 1015.7
20260903181134 35 352 1.6 3.2 0.00 0.00 0.00 60 1015.8
20260903180634 35 257 3.2 9.7 0.00 0.00 0.00 60 1015.9
20260903180134 35 260 4.8 8.0 0.00 0.00 0.00 59 1016.0
20260903175634 35 247 4.8 8.0 0.00 0.00 0.00 58 1016.0
20260903175134 36 235 3.2 6.4 0.00 0.00 0.00 56 1016.1
20260903174634 36 211 6.4 6.4 0.00 0.00 0.00 55 1016.1
20260903174134 36 250 9.7 16.1 0.00 0.00 0.00 54 1016.1
20260903173634 36 199 6.4 14.5 0.00 0.00 0.00 55 1016.1
20260903173134 36 186 3.2 12.9 0.00 0.00 0.00 54 1016.1
20260903172634 36 136 3.2 9.7 0.00 0.00 0.00 54 1016.3
20260903172134 36 57 4.8 11.3 0.00 0.00 0.00 55 1016.4
20260903171634 36 140 6.4 11.3 0.00 0.00 0.00 55 1016.5
20260903171134 36 171 4.8 14.5 0.00 0.00 0.00 55 1016.5
20260903170634 36 82 3.2 8.0 0.00 0.00 0.00 57 1016.5
20260903170134 36 252 3.2 6.4 0.00 0.00 0.00 56 1016.5
20260903165634 36 68 3.2 8.0 0.00 0.00 0.00 56 1016.6
20260903165134 36 59 3.2 8.0 0.00 0.00 0.00 55 1016.7
20260903164634 36 150 3.2 4.8 0.00 0.00 0.00 56 1016.7
20260903164134 36 244 4.8 9.7 0.00 0.00 0.00 56 1016.8
20260903163634 35 174 4.8 11.3 0.00 0.00 0.00 57 1017.0
20260903163134 35 178 4.8 12.9 0.00 0.00 0.00 58 1017.0
20260903162634 35 161 4.8 12.9 0.00 0.00 0.00 59 1017.1
20260903162134 35 237 4.8 9.7 0.00 0.00 0.00 61 1017.0
20260903161634 35 248 4.8 9.7 0.00 0.00 0.00 60 1017.0
20260903161134 35 238 6.4 8.0 0.00 0.00 0.00 61 1017.0
20260903160634 35 188 6.4 8.0 0.00 0.00 0.00 62 1017.2
20260903160134 35 238 3.2 9.7 0.00 0.00 0.00 61 1017.1
20260903155634 36 210 1.6 4.8 0.00 0.00 0.00 60 1017.0
20260903155134 35 200 3.2 6.4 0.00 0.00 0.00 61 1016.9
20260903154634 36 107 1.6 6.4 0.00 0.00 0.00 60 1016.9
20260903154134 36 37 1.6 3.2 0.00 0.00 0.00 61 1016.9
20260903153634 35 54 1.6 4.8 0.00 0.00 0.00 60 1017.0
20260903153134 35 10 1.6 4.8 0.00 0.00 0.00 62 1017.0
20260903152634 35 1 1.6 3.2 0.00 0.00 0.00 62 1017.1
20260903152134 35 1 1.6 3.2 0.00 0.00 0.00 66 1017.0
20260903151634 34 8 0.0 1.6 0.00 0.00 0.00 66 1017.0
20260903151135 34 13 1.6 4.8 0.00 0.00 0.00 66 1017.0
20260903150635 34 262 1.6 6.4 0.00 0.00 0.00 67 1017.0
20260903150135 34 337 1.6 3.2 0.00 0.00 0.00 67 1017.1
20260903145635 33 336 1.6 3.2 0.00 0.00 0.00 68 1017.1
20260903145135 33 340 1.6 3.2 0.00 0.00 0.00 68 1017.1
20260903144635 33 353 0.0 3.2 0.00 0.00 0.00 69 1017.1
20260903144135 32 224 0.0 3.2 0.00 0.00 0.00 71 1017.1
20260903143635 32 224 0.0 3.2 0.00 0.00 0.00 72 1017.0
20260903143135 32 217 0.0 1.6 0.00 0.00 0.00 74 1017.2
20260903142635 31 218 1.6 1.6 0.00 0.00 0.00 75 1017.1
20260903142135 31 218 1.6 4.8 0.00 0.00 0.00 75 1017.1
20260903141635 31 210 1.6 4.8 0.00 0.00 0.00 75 1017.1
20260903141135 30 206 1.6 4.8 0.00 0.00 0.00 76 1017.2
20260903140635 30 205 1.6 4.8 0.00 0.00 0.00 77 1017.3
20260903140135 30 211 1.6 4.8 0.00 0.00 0.00 77 1017.3
20260903135635 29 224 1.6 3.2 0.00 0.00 0.00 79 1017.3
20260903135135 29 224 1.6 4.8 0.00 0.00 0.00 79 1017.4
20260903134635 28 221 1.6 3.2 0.00 0.00 0.00 80 1017.3
20260903134135 28 222 1.6 3.2 0.00 0.00 0.00 82 1017.1
20260903133635 28 222 0.0 3.2 0.00 0.00 0.00 84 1017.2
20260903133135 27 222 0.0 1.6 0.00 0.00 0.00 86 1017.3
20260903132635 27 222 0.0 0.0 0.00 0.00 0.00 88 1017.2
20260903132135 26 222 1.6 3.2 0.00 0.00 0.00 88 1017.2
20260903131635 26 222 1.6 3.2 0.00 0.00 0.00 89 1017.3
20260903131135 25 222 1.6 4.8 0.00 0.00 0.00 89 1017.3
20260903130635 25 222 0.0 3.2 0.00 0.00 0.00 91 1017.1
20260903130135 25 222 0.0 1.6 0.00 0.00 0.00 92 1017.1
20260903125635 24 222 0.0 1.6 0.00 0.00 0.00 92 1017.1
20260903125135 23 222 0.0 0.0 0.00 0.00 0.00 93 1017.1
20260903124635 23 222 0.0 0.0 0.00 0.00 0.00 93 1017.1
20260903124135 23 222 0.0 1.6 0.00 0.00 0.00 94 1017.2
20260903123635 23 222 0.0 0.0 0.00 0.00 0.00 94 1017.1
20260903123135 23 222 0.0 0.0 0.00 0.00 0.00 94 1017.1
20260903122635 23 222 0.0 0.0 0.00 0.00 0.00 94 1017.0
20260903122135 23 222 0.0 0.0 0.00 0.00 0.00 94 1016.8
20260903121635 22 222 0.0 0.0 0.00 0.00 0.00 94 1016.8
20260903121135 22 222 0.0 1.6 0.00 0.00 0.00 94 1016.8
20260903120635 22 222 0.0 1.6 0.00 0.00 0.00 94 1016.8
20260903120135 22 222 1.6 1.6 0.00 0.00 0.00 94 1016.7
20260903115635 22 222 1.6 4.8 0.00 0.00 0.00 93 1016.6
20260903115135 23 222 0.0 4.8 0.00 0.00 0.00 93 1016.6
20260903114635 23 221 0.0 1.6 0.00 0.00 0.00 93 1016.4
20260903114135 22 221 0.0 0.0 0.00 0.00 0.00 93 1016.4
20260903113635 22 221 0.0 0.0 0.00 0.00 0.00 94 1016.3
20260903113135 22 221 0.0 0.0 0.00 0.00 0.00 94 1016.4
20260903112635 22 221 1.6 1.6 0.00 0.00 0.00 94 1016.4
20260903112135 22 221 1.6 6.4 0.00 0.00 0.00 94 1016.3
20260903111635 22 221 0.0 6.4 0.00 0.00 0.00 93 1016.2
20260903111135 22 219 0.0 1.6 0.00 0.00 0.00 93 1016.3
20260903110635 22 219 0.0 3.2 0.00 0.00 0.00 92 1016.2
20260903110135 23 219 0.0 4.8 0.00 0.00 0.00 91 1016.3
20260903105635 23 191 0.0 0.0 0.00 0.00 0.00 91 1016.1
20260903105135 23 191 0.0 0.0 0.00 0.00 0.00 91 1016.0
20260903104635 23 191 0.0 0.0 0.00 0.00 0.00 91 1016.0
20260903104135 23 191 0.0 0.0 0.00 0.00 0.00 91 1016.1
20260903103635 23 191 0.0 0.0 0.00 0.00 0.00 91 1016.0
20260903103135 23 191 0.0 0.0 0.00 0.00 0.00 91 1016.1
20260903102635 23 191 0.0 0.0 0.00 0.00 0.00 91 1016.0
20260903102135 23 191 0.0 0.0 0.00 0.00 0.00 91 1016.0
20260903101635 23 191 0.0 0.0 0.00 0.00 0.00 91 1016.1
20260903101135 23 191 0.0 0.0 0.00 0.00 0.00 91 1016.0
20260903100635 23 191 0.0 0.0 0.00 0.00 0.00 91 1016.0
20260903100135 23 191 0.0 0.0 0.00 0.00 0.00 91 1016.0
20260903095635 23 191 0.0 0.0 0.00 0.00 0.00 91 1016.0
20260903095135 23 191 0.0 0.0 0.00 0.00 0.00 91 1015.9
20260903094635 23 191 0.0 0.0 0.00 0.00 0.00 90 1015.8
20260903094135 23 191 0.0 0.0 0.00 0.00 0.00 90 1015.8
20260903093635 23 191 0.0 0.0 0.00 0.00 0.00 90 1015.9
20260903093135 23 191 0.0 0.0 0.00 0.00 0.00 91 1015.9
20260903092635 23 191 0.0 0.0 0.00 0.00 0.00 91 1015.9
20260903092135 23 191 0.0 0.0 0.00 0.00 0.00 91 1015.8
20260903091635 23 191 0.0 0.0 0.00 0.00 0.00 90 1015.8
20260903091135 23 191 0.0 0.0 0.00 0.00 0.00 91 1015.8
20260903090635 23 191 0.0 0.0 0.00 0.00 0.00 90 1015.7
20260903090135 23 191 0.0 0.0 0.00 0.00 0.00 90 1015.7
20260903085635 23 191 0.0 0.0 0.00 0.00 0.00 90 1015.8
20260903085135 24 191 0.0 0.0 0.00 0.00 0.00 90 1015.9
20260903084635 24 191 0.0 0.0 0.00 0.00 0.00 90 1015.8
20260903084135 24 197 0.0 0.0 0.00 0.00 0.00 89 1015.9
20260903083635 24 197 0.0 0.0 0.00 0.00 0.00 89 1015.9
20260903083135 24 197 0.0 0.0 0.00 0.00 0.00 89 1015.8
20260903082635 24 197 0.0 0.0 0.00 0.00 0.00 89 1015.9
20260903082135 24 197 0.0 0.0 0.00 0.00 0.00 90 1015.9
20260903081635 24 197 0.0 0.0 0.00 0.00 0.00 89 1015.9
20260903081135 24 197 0.0 0.0 0.00 0.00 0.00 88 1015.8
20260903080635 24 197 0.0 0.0 0.00 0.00 0.00 88 1015.8
20260903080135 24 197 0.0 0.0 0.00 0.00 0.00 88 1015.8
20260903075635 24 197 0.0 0.0 0.00 0.00 0.00 88 1015.8
20260903075135 24 197 0.0 0.0 0.00 0.00 0.00 88 1015.8
20260903074635 24 197 0.0 0.0 0.00 0.00 0.00 88 1015.9
20260903074135 24 197 0.0 0.0 0.00 0.00 0.00 88 1015.8
20260903073635 24 197 0.0 0.0 0.00 0.00 0.00 88 1015.8
20260903073135 24 197 0.0 0.0 0.00 0.00 0.00 88 1015.9
20260903072635 24 197 0.0 0.0 0.00 0.00 0.00 88 1016.0
20260903072135 24 197 0.0 0.0 0.00 0.00 0.00 88 1016.0
20260903071635 24 197 0.0 0.0 0.00 0.00 0.00 88 1016.0
20260903071135 24 197 0.0 0.0 0.00 0.00 0.00 89 1016.1
20260903070635 25 197 0.0 0.0 0.00 0.00 0.00 88 1016.0
20260903070135 25 197 0.0 0.0 0.00 0.00 0.00 88 1016.1
20260903065635 25 197 0.0 0.0 0.00 0.00 0.00 87 1016.1
20260903065135 25 197 0.0 0.0 0.00 0.00 0.00 87 1016.1
20260903064635 25 197 0.0 0.0 0.00 0.00 0.00 87 1016.2
20260903064135 25 197 0.0 0.0 0.00 0.00 0.00 87 1016.2
20260903063635 25 197 0.0 0.0 0.00 0.00 0.00 87 1016.2
20260903063135 25 197 0.0 0.0 0.00 0.00 0.00 86 1016.2
20260903062635 25 197 0.0 0.0 0.00 0.00 0.00 87 1016.2
20260903062135 25 197 0.0 0.0 0.00 0.00 0.00 86 1016.3
20260903061635 25 197 0.0 0.0 0.00 0.00 0.00 87 1016.3
20260903061135 25 197 0.0 0.0 0.00 0.00 0.00 85 1016.3
20260903060635 25 197 0.0 0.0 0.00 0.00 0.00 86 1016.2
20260903060135 25 197 0.0 0.0 0.00 0.00 0.00 86 1016.3
20260903055635 25 197 0.0 0.0 0.00 0.00 0.00 85 1016.4
20260903055135 25 197 0.0 0.0 0.00 0.00 0.00 85 1016.4
20260903054635 25 197 0.0 0.0 0.00 0.00 0.00 84 1016.3
20260903054135 25 197 0.0 0.0 0.00 0.00 0.00 84 1016.3
20260903053635 25 197 0.0 0.0 0.00 0.00 0.00 85 1016.3
20260903053135 25 197 0.0 0.0 0.00 0.00 0.00 85 1016.3
20260903052635 25 197 0.0 0.0 0.00 0.00 0.00 85 1016.2
20260903052135 25 197 0.0 0.0 0.00 0.00 0.00 84 1016.1
20260903051635 25 197 0.0 0.0 0.00 0.00 0.00 84 1016.2
20260903051135 25 197 0.0 0.0 0.00 0.00 0.00 84 1016.2
20260903050635 26 197 0.0 0.0 0.00 0.00 0.00 84 1016.2
20260903050135 26 197 0.0 0.0 0.00 0.00 0.00 83 1016.2
20260903045635 26 197 0.0 0.0 0.00 0.00 0.00 83 1016.1
20260903045135 26 197 0.0 0.0 0.00 0.00 0.00 83 1016.0
20260903044635 26 197 0.0 0.0 0.00 0.00 0.00 82 1016.0
20260903044135 26 197 0.0 0.0 0.00 0.00 0.00 82 1016.0
20260903043635 26 197 0.0 0.0 0.00 0.00 0.00 81 1015.9
20260903043135 26 197 0.0 0.0 0.00 0.00 0.00 80 1016.0
20260903042635 26 197 0.0 0.0 0.00 0.00 0.00 81 1016.0
20260903042135 27 197 0.0 0.0 0.00 0.00 0.00 79 1016.1
20260903041635 27 197 0.0 0.0 0.00 0.00 0.00 79 1016.1
20260903041135 27 197 0.0 0.0 0.00 0.00 0.00 79 1016.2
20260903040635 27 197 0.0 0.0 0.00 0.00 0.00 79 1016.1
20260903040135 27 197 0.0 0.0 0.00 0.00 0.00 79 1016.2
20260903035635 27 197 0.0 0.0 0.00 0.00 0.00 78 1016.2
20260903035135 27 197 0.0 0.0 0.00 0.00 0.00 78 1016.2
20260903034635 27 197 0.0 0.0 0.00 0.00 0.00 78 1016.1
20260903034135 27 197 0.0 0.0 0.00 0.00 0.00 78 1016.1
20260903033635 27 197 0.0 0.0 0.00 0.00 0.00 79 1016.2
20260903033135 27 197 0.0 1.6 0.00 0.00 0.00 79 1016.3
20260903032635 27 197 0.0 0.0 0.00 0.00 0.00 78 1016.4
20260903032135 27 197 0.0 0.0 0.00 0.00 0.00 78 1016.4
20260903031635 27 197 0.0 0.0 0.00 0.00 0.00 78 1016.4
20260903031135 27 197 0.0 0.0 0.00 0.00 0.00 78 1016.3
20260903030635 27 197 0.0 1.6 0.00 0.00 0.00 78 1016.2
20260903030135 27 197 0.0 3.2 0.00 0.00 0.00 78 1016.1
20260903025635 28 198 0.0 3.2 0.00 0.00 0.00 76 1016.3
20260903025135 29 191 1.6 3.2 0.00 0.00 0.00 73 1016.2
20260903024635 29 189 1.6 4.8 0.00 0.00 0.00 70 1016.2
20260903024135 30 186 1.6 4.8 0.00 0.00 0.00 69 1016.1
20260903023635 30 173 1.6 3.2 0.00 0.00 0.00 69 1016.1
20260903023135 30 188 1.6 4.8 0.00 0.00 0.00 68 1016.2
20260903022635 30 186 1.6 4.8 0.00 0.00 0.00 68 1016.1
20260903022135 30 166 1.6 3.2 0.00 0.00 0.00 67 1016.2
20260903021635 30 165 0.0 4.8 0.00 0.00 0.00 67 1016.1
20260903021136 30 195 0.0 0.0 0.00 0.00 0.00 66 1016.2
20260903020636 30 195 1.6 3.2 0.00 0.00 0.00 66 1016.1
20260903020136 31 198 1.6 4.8 0.00 0.00 0.00 65 1015.9
20260903015636 31 210 1.6 3.2 0.00 0.00 0.00 65 1015.8
20260903015136 31 174 1.6 4.8 0.00 0.00 0.00 65 1015.7
20260903014636 31 199 1.6 3.2 0.00 0.00 0.00 64 1015.7
20260903014136 31 199 0.0 3.2 0.00 0.00 0.00 64 1015.7
20260903013636 31 200 0.0 1.6 0.00 0.00 0.00 64 1015.6
20260903013136 31 200 1.6 1.6 0.00 0.00 0.00 63 1015.6
20260903012636 31 200 1.6 1.6 0.00 0.00 0.00 63 1015.5
20260903012136 31 200 1.6 3.2 0.00 0.00 0.00 62 1015.3
20260903011636 31 202 1.6 4.8 0.00 0.00 0.00 63 1015.3
20260903011136 31 185 0.0 4.8 0.00 0.00 0.00 63 1015.4
20260903010636 31 201 0.0 3.2 0.00 0.00 0.00 62 1015.3
20260903010136 31 211 1.6 1.6 0.00 0.00 0.00 62 1015.3
20260903005636 32 211 3.2 3.2 0.00 0.00 0.00 61 1015.2
20260903005136 32 227 3.2 6.4 0.00 0.00 0.00 61 1015.2
20260903004636 32 216 1.6 6.4 0.00 0.00 0.00 60 1015.2
20260903004136 32 206 1.6 4.8 0.00 0.00 0.00 60 1015.2
20260903003636 32 194 1.6 4.8 0.00 0.00 0.00 59 1015.2
20260903003136 32 222 3.2 6.4 0.00 0.00 0.00 58 1015.2
20260903002636 33 203 3.2 4.8 0.00 0.00 0.00 57 1015.1
20260903002136 33 193 3.2 4.8 0.00 0.00 0.00 56 1015.1
20260903001636 33 210 1.6 4.8 0.00 0.00 0.00 55 1015.0
20260903001136 33 170 1.6 4.8 0.00 0.00 0.00 54 1015.0
20260903000636 34 167 1.6 4.8 0.00 0.00 0.00 53 1015.0
20260903000136 34 185 3.2 4.8 0.00 0.00 0.00 52 1015.2
20260902235636 34 185 3.2 4.8 0.00 0.00 0.00 51 1015.2
20260902235136 34 198 1.6 6.4 0.00 0.00 0.00 50 1015.2
20260902234636 35 198 3.2 4.8 0.00 0.00 0.00 50 1015.1
20260902234136 35 200 3.2 6.4 0.00 0.00 0.00 49 1015.2
20260902233636 35 203 3.2 8.0 0.00 0.00 0.00 49 1015.2
20260902233136 35 210 4.8 9.7 0.00 0.00 0.00 49 1015.2
20260902232636 35 146 4.8 8.0 0.00 0.00 0.00 49 1015.2
20260902232136 35 183 4.8 11.3 0.00 0.00 0.00 49 1015.2
20260902231636 35 195 4.8 9.7 0.00 0.00 0.00 49 1015.1
20260902231136 35 128 4.8 12.9 0.00 0.00 0.00 48 1015.1
20260902230636 36 203 4.8 11.3 0.00 0.00 0.00 47 1015.0
20260902230136 36 207 3.2 6.4 0.00 0.00 0.00 47 1015.1
20260902225636 36 183 3.2 8.0 0.00 0.00 0.00 47 1015.1
20260902225136 36 97 3.2 8.0 0.00 0.00 0.00 46 1015.1
20260902224636 36 155 3.2 8.0 0.00 0.00 0.00 47 1015.0
20260902224136 36 18 3.2 12.9 0.00 0.00 0.00 46 1015.1
20260902223636 36 44 3.2 6.4 0.00 0.00 0.00 46 1015.1
20260902223136 37 122 3.2 8.0 0.00 0.00 0.00 45 1015.1
20260902222636 37 122 3.2 8.0 0.00 0.00 0.00 45 1015.1
20260902222136 37 143 3.2 9.7 0.00 0.00 0.00 46 1015.2
20260902221636 37 163 3.2 11.3 0.00 0.00 0.00 45 1015.2
20260902221136 37 212 4.8 9.7 0.00 0.00 0.00 45 1015.1
20260902220636 37 141 4.8 14.5 0.00 0.00 0.00 45 1015.2
20260902220136 37 195 4.8 6.4 0.00 0.00 0.00 45 1015.1
20260902215636 38 110 3.2 9.7 0.00 0.00 0.00 45 1015.3
20260902215136 38 195 3.2 9.7 0.00 0.00 0.00 44 1015.2
20260902214636 38 214 3.2 8.0 0.00 0.00 0.00 46 1015.3
20260902214136 38 153 3.2 11.3 0.00 0.00 0.00 45 1015.3
20260902213636 38 69 3.2 9.7 0.00 0.00 0.00 45 1015.4
20260902213136 38 40 3.2 9.7 0.00 0.00 0.00 46 1015.3
20260902212636 37 218 4.8 11.3 0.00 0.00 0.00 46 1015.4
20260902212136 37 138 4.8 9.7 0.00 0.00 0.00 45 1015.3
20260902211636 37 73 3.2 6.4 0.00 0.00 0.00 46 1015.2
20260902211136 37 212 3.2 6.4 0.00 0.00 0.00 46 1015.3
20260902210636 37 1 3.2 9.7 0.00 0.00 0.00 47 1015.3
20260902210136 36 162 1.6 4.8 0.00 0.00 0.00 51 1015.4
20260902205636 36 172 1.6 6.4 0.00 0.00 0.00 48 1015.5
20260902205136 37 143 1.6 4.8 0.00 0.00 0.00 49 1015.5
20260902204636 37 103 3.2 8.0 0.00 0.00 0.00 49 1015.5
20260902204136 37 167 1.6 3.2 0.00 0.00 0.00 49 1015.6
20260902203636 36 18 0.0 3.2 0.00 0.00 0.00 51 1015.6
20260902203136 36 128 0.0 1.6 0.00 0.00 0.00 52 1015.6
20260902202636 36 139 1.6 3.2 0.00 0.00 0.00 52 1015.7
20260902202136 36 144 3.2 8.0 0.00 0.00 0.00 52 1015.7
20260902201636 36 165 3.2 8.0 0.00 0.00 0.00 51 1015.9
20260902201136 36 200 3.2 9.7 0.00 0.00 0.00 51 1015.9
20260902200636 36 136 3.2 8.0 0.00 0.00 0.00 51 1016.0
20260902200136 36 100 1.6 6.4 0.00 0.00 0.00 52 1016.1
20260902195636 36 103 1.6 4.8 0.00 0.00 0.00 51 1016.1
20260902195136 36 134 3.2 8.0 0.00 0.00 0.00 50 1016.2
20260902194636 37 151 3.2 8.0 0.00 0.00 0.00 49 1016.3
20260902194136 36 52 1.6 6.4 0.00 0.00 0.00 50 1016.4
20260902193636 36 89 1.6 4.8 0.00 0.00 0.00 51 1016.4